Agassiz, British Columbia

6:27 PM PDT on March 29, 2017 (GMT -0700)
Agassiz

Weather History for CWZA - October, 2012

Change the Weather History Date:

Friday, October 12, 2012

  Actual Average Record
Temperature  
Mean Temperature 50 °F -  
Max Temperature 53 °F 55 °F - ()
Min Temperature 46 °F 41 °F - ()
Degree Days  
Heating Degree Days 16    
Moisture  
Dew Point 49 °F    
Average Humidity 95    
Maximum Humidity 99    
Minimum Humidity 90    
Precipitation  
Precipitation 0.24 in 0.26 in - ()
Sea Level Pressure  
Sea Level Pressure 29.88 in    
Wind  
Wind Speed 1 mph ()    
Max Wind Speed 2 mph    
Max Gust Speed -    
T = Trace of Precipitation, MM = Missing Value Source: Averaged Metar Reports

Daily Weather History Graph

Daily Weather History Graph

Search for Another Location

Airport or City:

Trip Planner

Search our weather history database for the weather conditions in past years. The results will help you decide how hot, cold, wet, or windy it might be!

Date:

Astronomy

Oct. 12, 2012 Rise Set
Actual Time 7:24 AM PDT 6:21 PM PDT
Civil Twilight 6:52 AM PDT 6:53 PM PDT
Nautical Twilight 6:15 AM PDT 7:30 PM PDT
Astronomical Twilight 5:38 AM PDT 8:07 PM PDT
Moon 3:59 AM PDT (10/12) 4:45 PM PDT (10/12)
Length of Visible Light 12h 01m
Length of Day
10h 57m
Waning Crescent, 10% of the Moon is Illuminated
Oct 12
Waning Crescent
Oct 15
New
Oct 21
First Quarter
Oct 29
Full
Nov 6
Last Quarter

Hourly Weather History & Observations

Time (PDT) Temp. Dew Point Humidity Pressure Visibility Wind Dir Wind Speed Gust Speed Precip Events Conditions
12:00 AM 49.6 °F 46.8 °F 90% 29.82 in - SSE 2.3 mph - N/A   Unknown
1:00 AM 49.5 °F 46.8 °F 90% 29.81 in - Calm Calm - N/A   Unknown
2:00 AM 49.5 °F 47.1 °F 92% 29.81 in - SW 2.3 mph - N/A   Unknown
3:00 AM 49.3 °F 47.7 °F 94% 29.81 in - SSW 2.3 mph - N/A   Unknown
4:00 AM 48.9 °F 47.5 °F 95% 29.83 in - SSW 2.3 mph - N/A   Unknown
5:00 AM 49 °F 47 °F 92% 29.86 in - East 1.2 mph - -  
5:00 AM 49.3 °F 47.5 °F 94% 29.86 in - East 1.2 mph - N/A   Unknown
6:00 AM 49.6 °F 47.3 °F 92% 29.84 in - Calm Calm - N/A   Unknown
7:00 AM 49.6 °F 48.2 °F 95% 29.86 in - South 1.2 mph - N/A   Unknown
8:00 AM 49.3 °F 48.2 °F 96% 29.86 in - NNW 2.3 mph - 0.01 in   Unknown
9:00 AM 49.6 °F 48.4 °F 95% 29.86 in - Calm Calm - N/A   Unknown
10:00 AM 50.2 °F 48.7 °F 95% 29.88 in - Calm Calm - N/A   Unknown
11:00 AM 51 °F 49 °F 91% 29.89 in - ENE 2.3 mph - -  
11:00 AM 50.9 °F 49.1 °F 94% 29.89 in - ENE 2.3 mph - 0.01 in   Unknown
12:00 PM 51.4 °F 49.5 °F 93% 29.91 in - East 1.2 mph - 0.01 in   Unknown
1:00 PM 51.8 °F 50.5 °F 95% 29.91 in - South 2.3 mph - 0.02 in   Unknown
2:00 PM 51.6 °F 50.4 °F 95% 29.90 in - Calm Calm - 0.05 in   Unknown
5:00 PM 53 °F 51 °F 91% 29.90 in - North 1.2 mph - -  
5:00 PM 52.5 °F 51.1 °F 95% 29.90 in - North 1.2 mph - 0.03 in   Unknown
6:00 PM 52.2 °F 51.1 °F 96% 29.89 in - NNW 1.2 mph - N/A   Unknown
7:00 PM 51.8 °F 51.1 °F 97% 29.91 in - Calm Calm - 0.02 in   Unknown
8:00 PM 51.6 °F 51.1 °F 98% 29.92 in - North 1.2 mph - 0.04 in   Unknown
9:00 PM 51.6 °F 51.3 °F 99% 29.91 in - Calm Calm - 0.06 in   Unknown
10:00 PM 51.6 °F 51.3 °F 99% 29.92 in - SE 1.2 mph - 0.05 in   Unknown
11:00 PM 52 °F 51 °F 97% 29.94 in - Calm Calm - -  
11:00 PM 51.8 °F 51.4 °F 99% 29.94 in - Calm Calm - 0.04 in   Unknown